Temp
47 48 47 46 46 46 45 45 45 44 44 44 44 43 42 42 42 42 42 42 41 41 41 41 41 41 41 42 42 43 43 42 42 42 41 41 41 40 40 40 40 42
46 46 46 46 45 45 45 44 44 43 42 43 43 42 42 41 41 41 40 40 41 40 40 40 40 40 40 40 40 40 41 41 40 40 39 39 40 40 40 39 40 41
45 44 44 44 43 42 42 43 43 42 41 40 41 41 39 39 39 39 39 39 39 39 39 39 38 39 38 38 38 40 39 38 38 39 39 39 39 39 39 40 40 39
44 44 43 43 42 41 42 42 41 41 41 40 39 38 38 38 38 38 37 37 38 37 37 37 37 37 37 37 37 38 38 38 38 37 37 39 39 38 38 39 38 38
42 42 42 42 41 41 41 40 39 39 38 38 38 38 37 37 37 36 36 36 36 36 36 36 36 36 36 36 36 37 37 37 37 36 36 36 38 37 36 37 36 36
41 41 41 40 40 40 39 38 37 37 37 36 36 36 35 35 35 35 35 35 35 35 35 35 35 35 35 34 35 36 35 35 35 34 34 35 36 36 35 35 35 35
39 39 38 39 38 38 37 36 36 35 35 35 35 35 35 35 34 34 34 34 34 34 33 33 33 33 34 34 34 33 34 33 33 33 33 34 34 34 34 34 34 33
38 38 38 37 36 36 35 35 35 34 34 34 34 33 33 32 32 32 32 32 32 32 32 32 32 32 32 32 32 32 32 32 31 32 32 32 33 32 33 33 32 32
37 37 36 36 35 35 34 34 33 32 32 32 32 32 32 31 31 31 30 31 31 31 31 30 30 31 31 30 30 30 30 31 31 31 30 30 30 31 31 31 31 31
37 36 36 36 35 34 33 32 32 31 31 31 31 31 30 31 30 29 29 30 29 30 30 29 29 29 29 30 29 29 29 29 29 29 29 29 29 29 29 29 29 29
36 36 35 34 34 33 31 31 31 31 31 30 30 30 30 30 29 29 28 29 28 27 27 28 28 28 27 28 28 29 28 28 28 28 28 28 28 28 27 28 28 28
35 35 34 33 32 31 31 31 30 30 29 29 28 28 28 28 27 27 27 26 27 26 26 26 27 27 26 26 27 27 27 27 27 27 27 27 28 28 27 28 27 27
35 34 33 32 31 31 30 29 28 27 27 26 26 25 25 26 25 25 26 25 25 25 24 25 25 25 25 25 25 26 26 26 26 26 26 27 27 27 27 27 27 27
33 32 32 31 30 29 28 27 26 25 24 24 23 23 23 23 23 22 24 24 23 23 23 23 24 24 24 24 25 25 25 24 24 24 24 25 25 26 26 26 26 26
31 30 30 28 27 25 25 24 23 23 22 22 22 22 22 22 21 21 21 21 22 22 21 22 22 22 22 21 22 23 23 23 23 23 23 23 24 24 25 25 25 26
30 29 28 26 25 23 23 22 22 21 20 19 19 20 20 20 19 20 20 20 19 20 21 21 21 22 18 19 21 22 22 22 22 23 23 23 23 23 23 25 25 25
28 27 26 24 23 22 19 19 19 18 17 17 17 16 17 17 18 18 19 19 18 19 19 19 20 20 17 20 21 22 22 22 21 21 22 22 22 22 21 22 24 24
27 25 23 22 20 18 17 16 16 15 15 15 15 15 16 16 16 17 17 17 17 17 18 18 19 17 18 19 20 21 22 22 21 20 20 21 21 21 21 21 22 22
25 22 20 18 18 16 15 14 13 14 13 13 13 14 14 15 16 14 15 15 15 15 15 16 17 17 17 18 20 21 21 22 21 20 20 20 21 21 21 21 21 21
22 19 18 17 16 15 15 14 13 13 14 14 13 14 14 13 13 12 13 12 13 13 14 15 16 15 16 18 19 20 21 21 20 20 19 20 20 20 20 20 20 20
20 19 17 16 14 13 13 13 13 13 12 13 13 14 12 12 12 11 10 9 10 11 11 12 13 14 16 17 18 19 21 21 20 19 18 19 20 20 19 19 20 20
18 17 16 15 14 13 12 13 13 12 11 12 11 13 12 12 11 11 9 8 9 8 9 9 13 14 15 16 17 19 20 19 18 17 17 17 17 19 19 19 20 20
19 16 15 14 13 12 11 12 12 10 10 12 9 11 11 10 9 9 9 8 7 7 7 8 9 11 13 15 17 18 18 17 17 16 17 16 17 18 19 19 20 21
19 16 14 13 12 11 11 13 12 12 10 10 9 9 9 9 8 8 8 8 6 6 6 6 7 10 13 15 16 17 18 16 16 16 15 16 16 18 19 19 20 20
16 14 13 11 11 11 10 9 9 9 9 8 8 8 7 8 7 7 7 7 7 6 6 6 6 8 11 13 15 17 18 17 17 16 15 15 16 16 18 19 20 21
13 11 11 9 9 9 8 8 9 7 7 8 7 8 8 8 7 7 4 5 6 5 5 6 7 7 9 13 15 17 18 17 17 16 15 15 16 16 16 18 19 20
MSLP
1029.77 1029.87 1030.07 1030.25 1030.49 1030.71 1030.91 1031.09 1031.21 1031.37 1031.43 1031.51 1031.61 1031.81 1031.97 1032.07 1032.07 1031.95 1031.85 1031.81 1031.79 1031.75 1031.77 1031.75 1031.67 1031.61 1031.49 1031.31 1031.21 1030.93 1030.73 1030.73 1030.61 1030.55 1030.49 1030.29 1030.05 1030.03 1029.93 1029.81 1029.63 1029.33
1030.19 1030.33 1030.45 1030.61 1030.83 1031.09 1031.29 1031.45 1031.59 1031.69 1031.87 1031.95 1032.03 1032.13 1032.31 1032.37 1032.37 1032.29 1032.21 1032.13 1032.07 1032.13 1032.13 1032.07 1031.97 1031.91 1031.79 1031.57 1031.47 1031.21 1030.97 1030.91 1030.83 1030.75 1030.67 1030.49 1030.23 1030.03 1029.93 1029.89 1029.63 1029.51
1030.43 1030.59 1030.77 1030.95 1031.23 1031.51 1031.69 1031.83 1031.93 1032.07 1032.23 1032.41 1032.49 1032.49 1032.65 1032.71 1032.69 1032.61 1032.59 1032.53 1032.45 1032.45 1032.43 1032.33 1032.23 1032.11 1032.05 1031.93 1031.71 1031.39 1031.31 1031.21 1031.05 1030.93 1030.79 1030.51 1030.37 1030.23 1030.05 1029.87 1029.69 1029.63
1030.79 1030.93 1031.11 1031.31 1031.49 1031.73 1031.89 1032.03 1032.17 1032.31 1032.45 1032.59 1032.81 1032.89 1032.91 1032.93 1032.87 1032.87 1032.85 1032.83 1032.73 1032.67 1032.61 1032.53 1032.43 1032.31 1032.23 1032.09 1031.89 1031.55 1031.47 1031.29 1031.25 1031.17 1030.93 1030.59 1030.45 1030.35 1030.25 1029.99 1029.85 1029.67
1031.03 1031.23 1031.41 1031.61 1031.85 1032.03 1032.17 1032.33 1032.53 1032.69 1032.85 1032.99 1033.07 1033.07 1033.11 1033.13 1033.11 1033.09 1033.03 1032.99 1032.89 1032.85 1032.75 1032.65 1032.53 1032.45 1032.35 1032.17 1031.99 1031.73 1031.57 1031.33 1031.27 1031.29 1031.05 1030.81 1030.55 1030.47 1030.41 1030.19 1030.01 1029.81
1031.35 1031.55 1031.75 1031.93 1032.11 1032.27 1032.47 1032.75 1032.93 1033.03 1033.17 1033.27 1033.37 1033.37 1033.43 1033.39 1033.29 1033.27 1033.23 1033.17 1033.07 1033.01 1032.91 1032.77 1032.69 1032.59 1032.49 1032.37 1032.13 1031.91 1031.79 1031.59 1031.49 1031.45 1031.27 1030.97 1030.69 1030.57 1030.51 1030.37 1030.13 1029.93
1031.69 1031.89 1032.13 1032.29 1032.49 1032.65 1032.81 1033.07 1033.27 1033.37 1033.45 1033.49 1033.53 1033.53 1033.53 1033.43 1033.45 1033.45 1033.37 1033.31 1033.23 1033.13 1033.05 1032.95 1032.83 1032.73 1032.61 1032.45 1032.25 1032.13 1031.97 1031.89 1031.77 1031.55 1031.39 1031.09 1030.87 1030.73 1030.55 1030.43 1030.27 1030.07
1031.87 1032.13 1032.33 1032.55 1032.77 1032.97 1033.13 1033.33 1033.43 1033.55 1033.65 1033.63 1033.61 1033.75 1033.77 1033.79 1033.75 1033.73 1033.63 1033.55 1033.43 1033.33 1033.23 1033.11 1033.03 1032.93 1032.79 1032.65 1032.47 1032.31 1032.13 1031.97 1031.87 1031.65 1031.43 1031.21 1030.93 1030.77 1030.57 1030.47 1030.35 1030.13
1032.01 1032.29 1032.53 1032.75 1032.95 1033.05 1033.27 1033.43 1033.63 1033.75 1033.83 1033.85 1033.83 1033.91 1033.93 1033.95 1033.95 1033.85 1033.79 1033.67 1033.55 1033.45 1033.35 1033.25 1033.17 1033.05 1032.91 1032.77 1032.63 1032.45 1032.27 1032.07 1031.93 1031.79 1031.63 1031.39 1031.19 1030.97 1030.81 1030.63 1030.49 1030.21
1032.09 1032.35 1032.59 1032.75 1032.95 1033.17 1033.45 1033.63 1033.71 1033.81 1033.87 1033.91 1033.91 1033.91 1033.93 1033.99 1034.01 1033.97 1033.85 1033.73 1033.63 1033.53 1033.45 1033.37 1033.27 1033.15 1033.03 1032.83 1032.73 1032.59 1032.41 1032.25 1032.07 1031.93 1031.75 1031.55 1031.35 1031.15 1030.97 1030.85 1030.63 1030.43
1032.17 1032.39 1032.65 1032.85 1033.05 1033.31 1033.61 1033.69 1033.71 1033.71 1033.83 1033.93 1033.91 1033.91 1034.01 1034.01 1033.99 1034.01 1034.01 1033.83 1033.81 1033.73 1033.65 1033.47 1033.37 1033.29 1033.17 1033.01 1032.81 1032.69 1032.57 1032.39 1032.19 1031.97 1031.77 1031.59 1031.43 1031.23 1031.13 1030.95 1030.75 1030.55
1032.21 1032.47 1032.71 1032.95 1033.19 1033.41 1033.61 1033.65 1033.73 1033.81 1033.91 1033.99 1034.11 1034.11 1034.15 1034.11 1034.19 1034.17 1034.09 1034.11 1033.95 1033.95 1033.81 1033.65 1033.51 1033.39 1033.27 1033.09 1032.93 1032.79 1032.61 1032.37 1032.17 1031.99 1031.79 1031.63 1031.43 1031.25 1031.13 1030.97 1030.81 1030.63
1032.21 1032.49 1032.77 1033.03 1033.21 1033.39 1033.61 1033.77 1033.93 1034.11 1034.15 1034.23 1034.29 1034.33 1034.31 1034.25 1034.29 1034.31 1034.21 1034.21 1034.15 1034.07 1033.95 1033.77 1033.63 1033.47 1033.27 1033.13 1032.99 1032.77 1032.55 1032.37 1032.19 1032.01 1031.83 1031.61 1031.41 1031.23 1031.11 1030.97 1030.81 1030.63
1032.27 1032.61 1032.87 1033.07 1033.35 1033.67 1033.85 1033.99 1034.17 1034.29 1034.39 1034.43 1034.47 1034.41 1034.41 1034.47 1034.43 1034.43 1034.31 1034.29 1034.27 1034.23 1034.07 1033.93 1033.75 1033.53 1033.33 1033.21 1032.99 1032.79 1032.61 1032.47 1032.31 1032.13 1031.89 1031.67 1031.41 1031.21 1031.05 1030.91 1030.79 1030.59
1032.43 1032.81 1033.07 1033.41 1033.71 1033.93 1034.09 1034.19 1034.31 1034.43 1034.53 1034.57 1034.57 1034.53 1034.55 1034.55 1034.59 1034.51 1034.47 1034.37 1034.31 1034.27 1034.17 1033.99 1033.83 1033.61 1033.51 1033.45 1033.21 1032.89 1032.67 1032.47 1032.27 1032.09 1031.87 1031.59 1031.33 1031.15 1030.97 1030.83 1030.67 1030.47
1032.47 1032.85 1033.11 1033.47 1033.77 1034.03 1034.17 1034.25 1034.37 1034.51 1034.65 1034.71 1034.69 1034.65 1034.65 1034.67 1034.69 1034.61 1034.57 1034.47 1034.41 1034.27 1034.15 1033.99 1033.79 1033.63 1033.75 1033.57 1033.21 1032.89 1032.63 1032.37 1032.15 1031.95 1031.73 1031.53 1031.35 1031.13 1030.89 1030.69 1030.53 1030.35
1032.51 1032.83 1033.21 1033.53 1033.83 1034.17 1034.33 1034.35 1034.39 1034.59 1034.75 1034.87 1034.85 1034.83 1034.79 1034.83 1034.69 1034.65 1034.57 1034.49 1034.45 1034.35 1034.19 1033.93 1033.73 1033.63 1033.67 1033.35 1033.03 1032.73 1032.51 1032.29 1032.07 1031.83 1031.67 1031.53 1031.37 1031.15 1030.89 1030.61 1030.41 1030.25
1032.37 1032.83 1033.23 1033.61 1034.07 1034.33 1034.39 1034.45 1034.59 1034.75 1034.85 1034.93 1034.89 1034.85 1034.77 1034.79 1034.71 1034.69 1034.69 1034.55 1034.51 1034.39 1034.19 1033.95 1033.73 1033.63 1033.55 1033.23 1032.89 1032.57 1032.35 1032.13 1031.91 1031.73 1031.55 1031.43 1031.23 1031.07 1030.85 1030.69 1030.43 1030.21
1032.41 1032.85 1033.29 1033.83 1034.09 1034.25 1034.33 1034.51 1034.69 1034.81 1034.97 1035.01 1034.95 1034.87 1034.83 1034.73 1034.69 1034.81 1034.71 1034.63 1034.57 1034.45 1034.29 1033.99 1033.69 1033.57 1033.47 1033.11 1032.73 1032.45 1032.21 1031.99 1031.77 1031.59 1031.43 1031.27 1031.07 1030.95 1030.87 1030.69 1030.47 1030.21
1032.45 1032.91 1033.37 1033.77 1034.01 1034.13 1034.19 1034.39 1034.61 1034.73 1034.85 1034.83 1034.91 1034.79 1034.71 1034.81 1034.79 1034.83 1034.75 1034.73 1034.65 1034.55 1034.31 1033.97 1033.69 1033.57 1033.35 1032.95 1032.61 1032.33 1032.03 1031.77 1031.57 1031.45 1031.29 1031.17 1031.09 1030.99 1030.87 1030.69 1030.47 1030.25
1032.45 1032.87 1033.25 1033.59 1033.89 1034.11 1034.23 1034.35 1034.51 1034.67 1034.85 1034.73 1034.71 1034.61 1034.65 1034.57 1034.61 1034.73 1034.83 1034.91 1034.77 1034.63 1034.41 1034.15 1033.69 1033.49 1033.19 1032.85 1032.53 1032.17 1031.85 1031.55 1031.45 1031.39 1031.29 1031.17 1030.99 1030.87 1030.75 1030.59 1030.37 1030.13
1032.37 1032.73 1033.11 1033.35 1033.63 1033.97 1034.21 1034.13 1034.33 1034.57 1034.77 1034.63 1034.73 1034.55 1034.53 1034.55 1034.63 1034.65 1034.79 1034.81 1034.71 1034.65 1034.47 1034.09 1033.55 1033.33 1033.11 1032.77 1032.39 1032.03 1031.69 1031.55 1031.47 1031.37 1031.23 1031.05 1030.87 1030.71 1030.57 1030.37 1030.15 1029.89
1032.11 1032.49 1032.83 1033.19 1033.51 1033.83 1034.05 1034.07 1034.15 1034.49 1034.57 1034.47 1034.67 1034.41 1034.37 1034.45 1034.59 1034.61 1034.61 1034.63 1034.63 1034.57 1034.39 1034.01 1033.63 1033.33 1033.03 1032.61 1032.25 1031.93 1031.65 1031.55 1031.37 1031.17 1030.97 1030.85 1030.67 1030.51 1030.29 1030.05 1029.79 1029.53
1031.81 1032.25 1032.69 1033.05 1033.41 1033.67 1033.77 1033.69 1033.93 1034.05 1034.31 1034.45 1034.37 1034.29 1034.31 1034.41 1034.47 1034.49 1034.51 1034.45 1034.45 1034.39 1034.21 1034.07 1033.65 1033.21 1032.87 1032.47 1032.15 1031.81 1031.51 1031.35 1031.19 1031.03 1030.87 1030.65 1030.39 1030.17 1029.97 1029.69 1029.43 1029.11
1031.81 1032.17 1032.51 1032.99 1033.29 1033.35 1033.65 1033.85 1033.93 1034.09 1034.17 1034.37 1034.41 1034.33 1034.37 1034.35 1034.41 1034.33 1034.35 1034.27 1034.21 1034.17 1034.05 1033.89 1033.49 1033.15 1032.81 1032.39 1031.97 1031.59 1031.31 1031.13 1030.91 1030.73 1030.57 1030.37 1030.15 1029.89 1029.57 1029.17 1028.71 1028.43
1031.85 1032.29 1032.61 1032.99 1033.17 1033.39 1033.69 1033.87 1033.87 1034.13 1034.23 1034.17 1034.29 1034.17 1034.15 1034.17 1034.29 1034.19 1034.39 1034.21 1034.03 1033.97 1033.79 1033.53 1033.31 1032.97 1032.71 1032.21 1031.75 1031.33 1031.03 1030.85 1030.61 1030.47 1030.23 1029.99 1029.79 1029.43 1028.97 1028.57 1028.29 1027.91
Wind_Speed
8 8 8 8 8 7 7 7 6 6 6 5 5 5 5 5 5 6 6 6 7 6 6 6 6 6 5 5 6 5 4 5 4 5 5 5 4 5 4 6 6 5
9 8 8 7 7 6 6 6 6 6 6 6 5 4 4 5 5 5 6 6 5 6 5 5 5 6 6 5 6 5 5 5 5 4 5 5 5 5 5 6 5 6
8 8 8 8 7 8 7 6 6 5 5 5 4 4 4 4 4 5 5 5 4 4 5 5 5 5 5 5 5 4 4 4 5 5 5 5 4 5 6 5 5 6
8 8 7 7 7 7 5 5 5 5 4 4 5 4 3 3 4 4 4 4 4 4 4 4 5 4 5 5 5 4 4 3 4 5 5 4 4 4 5 5 5 5
8 7 7 7 6 6 5 6 6 5 5 4 4 4 4 3 3 3 4 4 3 4 4 4 4 5 5 5 5 4 4 4 4 5 5 5 4 4 5 5 6 6
7 6 6 6 5 5 5 5 5 4 4 4 3 2 2 3 3 3 3 4 3 3 4 4 4 4 4 5 4 4 4 4 5 5 5 5 5 5 4 5 6 7
7 6 7 6 6 6 6 5 4 3 3 2 2 3 3 3 4 4 4 4 4 4 4 4 4 5 4 4 4 4 4 4 5 5 5 5 5 6 5 6 6 7
7 6 5 5 5 5 5 4 3 3 3 2 3 3 3 3 3 2 3 3 3 3 4 4 4 5 5 4 4 5 5 4 4 6 6 6 6 6 6 5 6 7
6 6 5 6 5 4 4 4 3 3 2 2 2 2 1 1 2 2 2 2 2 3 3 3 4 4 4 4 5 5 5 5 5 6 6 6 6 7 7 7 7 7
6 6 6 5 5 4 4 4 3 3 2 2 2 2 1 1 2 2 2 2 2 3 3 4 4 4 4 4 5 5 5 6 6 6 6 6 6 7 7 7 7 7
7 6 5 5 5 4 4 4 3 3 2 2 2 2 1 1 1 1 2 2 2 3 3 4 4 4 5 4 4 5 5 5 6 5 6 6 6 6 6 7 7 7
7 6 5 5 5 4 4 3 3 3 3 2 2 1 1 1 1 1 1 2 2 3 3 4 4 4 4 5 5 5 5 5 5 6 6 6 6 6 6 7 7 8
6 6 5 5 4 3 3 3 3 2 2 2 1 1 1 0 1 1 1 1 2 3 3 4 4 4 4 4 5 5 5 6 6 6 7 6 6 7 7 7 7 7
6 5 5 4 4 3 3 3 2 2 2 2 2 1 1 1 1 1 1 1 2 3 3 4 4 4 4 4 5 5 6 7 7 7 7 7 7 7 7 7 8 8
6 5 4 4 4 3 3 3 2 2 2 1 1 1 1 1 1 1 1 2 2 3 3 4 3 3 2 4 6 7 7 8 7 7 8 9 9 9 9 9 8 8
6 5 5 4 4 3 3 3 2 2 1 1 1 1 1 1 1 1 1 2 2 3 3 3 3 2 4 9 9 7 8 7 8 8 8 8 9 9 10 9 9 9
6 5 5 5 3 3 2 2 2 1 1 1 1 1 1 0 0 0 1 2 2 3 4 4 3 3 8 11 11 12 9 8 8 8 8 8 8 9 10 10 10 10
6 6 5 4 4 4 3 2 2 1 1 1 1 1 0 0 0 0 2 2 2 3 4 5 5 6 10 11 12 12 11 8 8 7 8 8 8 9 9 10 10 9
6 6 5 4 4 4 3 2 2 1 2 2 1 0 1 1 0 1 2 2 3 4 5 5 6 7 11 12 12 12 12 11 7 8 8 8 9 9 10 10 9 9
6 6 5 5 4 3 3 2 2 2 1 1 1 1 1 1 1 1 2 3 3 4 5 6 7 7 12 13 13 13 13 11 8 9 9 9 9 9 9 10 11 11
6 6 5 5 4 3 3 2 2 2 2 2 1 1 1 1 1 1 2 3 4 4 5 6 6 10 12 13 13 13 14 12 8 8 8 8 9 9 9 10 11 11
6 6 5 5 5 4 3 3 3 2 2 2 1 1 1 1 1 2 2 4 4 5 5 7 7 10 13 13 14 13 14 8 6 7 8 8 9 9 9 10 10 11
7 6 6 5 5 4 4 3 3 3 3 2 2 2 1 1 2 2 3 3 5 5 6 6 7 9 12 14 14 14 11 7 7 7 8 8 9 9 10 10 10 11
7 6 6 5 5 4 4 3 3 2 3 2 2 2 2 2 2 2 3 3 5 6 5 6 7 10 14 14 14 13 11 8 7 7 8 8 9 9 9 10 12 19
6 6 6 5 5 5 4 4 3 3 2 2 2 2 2 2 2 3 3 4 5 6 8 9 8 9 13 14 14 13 10 7 7 7 8 8 9 9 10 11 13 14
6 6 5 5 5 4 4 3 2 2 3 2 2 2 2 2 2 3 3 4 5 6 6 6 7 7 9 14 13 13 12 8 7 8 8 9 10 11 11 10 12 12
Wind_Direction
92 91 88 86 82 80 79 79 74 73 68 63 65 56 49 43 31 34 34 36 33 30 26 22 20 17 10 13 7 6 17 14 12 11 359 0 354 355 347 347 341 340
91 90 92 92 90 84 81 77 76 74 70 63 60 60 54 43 35 33 31 29 33 31 23 22 19 17 12 7 2 3 8 9 6 5 346 351 348 343 341 337 330 334
95 91 91 91 93 91 85 79 77 73 71 66 61 55 50 40 37 34 32 23 25 25 22 17 15 15 9 3 350 358 4 357 1 353 342 342 343 338 336 328 328 325
96 96 96 94 93 91 85 84 79 74 70 66 52 46 48 37 37 32 31 25 23 18 17 12 9 6 0 354 347 354 350 346 355 342 333 332 330 331 325 323 316 315
105 99 95 93 91 87 84 80 74 70 68 64 59 46 41 38 31 30 25 17 21 12 9 7 4 2 356 353 347 350 346 346 350 343 333 325 325 327 319 318 316 309
101 100 96 94 90 89 87 82 77 76 73 68 60 50 49 36 37 26 21 16 12 14 3 2 0 354 349 346 338 349 340 341 338 331 325 319 320 323 316 310 310 309
113 107 102 98 94 91 92 90 89 87 79 83 79 59 42 39 32 25 16 13 10 9 5 356 356 350 348 341 340 338 333 328 321 323 319 315 316 312 311 310 308 304
116 110 107 104 104 103 102 106 107 93 83 76 75 54 48 34 32 19 9 3 6 360 355 350 345 344 341 338 337 334 329 328 322 322 320 316 317 313 318 317 310 305
122 120 119 122 122 122 117 112 105 100 96 104 101 104 93 61 19 14 2 359 353 354 345 338 340 337 335 333 330 330 325 324 320 318 315 315 315 314 315 314 310 309
131 131 136 140 133 123 127 130 137 132 127 116 113 97 84 64 37 2 359 359 343 353 341 335 335 336 332 329 324 322 323 317 315 315 311 310 309 309 312 313 309 309
140 143 145 143 136 136 145 143 142 132 118 103 94 94 58 53 23 13 357 351 350 343 330 327 328 326 323 321 321 319 314 312 310 308 307 306 305 305 306 307 307 306
146 148 149 146 142 144 146 139 126 120 119 110 92 104 66 103 35 359 330 345 323 326 312 310 317 321 316 316 317 317 311 309 310 310 309 308 305 306 310 310 308 310
152 153 150 149 148 143 140 137 127 124 134 121 117 122 100 105 21 355 320 336 315 318 310 314 313 313 313 317 316 315 316 315 314 310 306 305 301 305 306 305 305 304
149 148 146 140 135 137 144 139 136 143 137 137 136 137 116 84 9 342 317 316 313 308 306 302 304 305 317 319 322 321 321 315 311 309 308 304 305 305 305 304 302 300
144 142 135 133 138 143 153 155 145 137 140 140 134 125 100 101 344 335 314 309 300 292 295 299 296 302 327 332 325 320 317 312 309 305 304 303 305 306 306 303 300 297
146 142 142 141 148 156 161 156 144 137 147 141 132 106 105 40 347 322 311 304 307 303 301 292 289 287 299 310 314 314 314 307 305 302 303 302 303 305 304 302 301 300
148 145 143 149 148 163 162 151 134 132 136 153 147 120 123 107 292 327 328 307 304 306 303 297 287 283 300 311 313 313 312 306 303 302 300 298 298 300 302 302 303 301
150 144 146 147 160 176 158 132 121 133 161 180 180 141 148 94 216 337 310 307 302 299 298 293 290 290 305 310 312 312 312 308 302 298 299 295 297 298 299 301 302 303
146 146 148 163 175 160 140 137 129 159 189 196 196 188 199 182 44 322 300 312 302 304 292 290 287 295 305 309 310 311 310 309 299 295 294 292 295 295 295 299 301 300
148 145 161 170 161 149 144 153 151 191 197 223 207 220 184 260 267 275 298 301 303 301 293 289 288 292 303 307 309 309 309 308 298 296 291 289 290 292 293 295 297 299
150 158 166 159 154 150 161 167 176 190 206 214 220 216 215 242 270 264 283 291 289 291 291 287 281 292 303 307 308 309 308 309 299 294 289 285 288 287 288 290 292 293
157 163 161 159 157 161 172 179 181 189 208 215 223 225 212 220 256 256 272 277 285 288 285 285 285 298 305 305 307 308 310 308 297 290 287 285 286 289 287 288 288 289
166 161 159 158 160 170 175 187 181 197 208 201 214 233 221 240 249 258 272 279 282 279 281 283 287 294 301 303 306 307 310 300 292 289 288 288 287 289 289 286 285 284
165 160 156 160 165 175 178 185 177 204 198 205 224 227 237 236 262 264 258 263 271 276 277 283 285 290 297 301 303 303 304 300 294 289 287 288 290 288 288 287 281 278
157 156 157 160 172 175 174 182 190 197 202 208 224 229 242 241 248 261 265 269 261 269 278 279 278 284 291 298 301 302 304 295 291 289 286 286 290 290 282 277 278 277
153 151 157 163 171 167 170 183 180 189 202 218 235 246 244 261 252 258 266 271 270 269 268 269 275 278 283 294 299 302 301 298 292 288 288 286 286 282 280 276 273 274